FW0954 Weather Reports


time (UTC)temp
C
wind
direction
speed
KPH
gust
KPH
rain 1hr
cm
rain 24hr
cm
rain mn
cm
humidity
%
barometer
mb
20260510221503 20 65 1.6 8.0 0.00 2.16 2.16 91 1017.9
20260510221002 20 69 1.6 8.0 0.00 2.16 2.16 90 1017.6
20260510220002 20 63 1.6 11.3 0.00 2.16 2.16 90 1017.5
20260510215502 20 49 3.2 12.9 0.00 2.16 2.16 90 1017.7
20260510214502 20 62 3.2 9.7 0.00 2.16 2.16 89 1017.1
20260510214001 20 30 3.2 8.0 0.00 2.16 2.16 88 1018.1
20260510213502 20 22 3.2 9.7 0.00 2.16 2.16 87 1018.5
20260510213002 21 31 3.2 9.7 0.00 2.16 2.16 86 1018.1
20260510212502 21 40 3.2 8.0 0.00 2.16 2.16 86 1017.6
20260510212002 21 51 1.6 6.4 0.00 2.16 2.16 88 1017.2
20260510211502 21 59 1.6 6.4 0.00 2.16 2.16 89 1016.8
20260510211002 21 74 1.6 11.3 0.00 2.16 2.16 93 1016.7
20260510210501 21 75 1.6 11.3 0.00 2.16 2.16 93 1016.7
20260510210002 21 58 1.6 9.7 0.00 2.16 2.16 94 1016.6
20260510205502 21 77 1.6 9.7 0.00 2.16 2.16 96 1016.8
20260510205002 20 97 1.6 9.7 0.00 2.16 2.16 97 1016.8
20260510204502 20 98 1.6 6.4 0.00 2.16 2.16 97 1017.0
20260510204002 20 61 1.6 6.4 0.00 2.16 2.16 96 1016.9
20260510203502 20 61 1.6 9.7 0.00 2.16 2.16 96 1016.8
20260510203002 20 69 0.0 9.7 0.00 2.16 2.16 96 1016.9
20260510202502 20 114 0.0 1.6 0.00 2.16 2.16 96 1017.1
20260510202002 20 116 0.0 4.8 0.00 2.16 2.16 96 1017.1
20260510201502 21 116 0.0 4.8 0.00 2.16 2.16 96 1017.2
20260510201002 21 20 0.0 1.6 0.00 2.16 2.16 97 1016.8
20260510200502 20 76 0.0 1.6 0.00 2.16 2.16 96 1016.7
20260510200002 20 88 0.0 3.2 0.00 2.16 2.16 96 1016.7
20260510195502 20 82 0.0 3.2 0.00 2.16 2.16 96 1016.8
20260510195002 21 98 0.0 4.8 0.00 2.16 2.16 96 1016.8
20260510194502 21 97 1.6 6.4 0.00 2.16 2.16 96 1016.9
20260510194002 21 104 1.6 6.4 0.00 2.16 2.16 97 1016.9
20260510193502 20 110 1.6 9.7 0.00 2.16 2.16 96 1016.9
20260510193003 20 106 1.6 9.7 0.00 2.16 2.16 97 1016.9
20260510192502 20 112 1.6 8.0 0.00 2.16 2.16 97 1017.0
20260510191502 20 98 1.6 6.4 0.00 2.16 2.16 97 1017.1
20260510191002 20 109 1.6 6.4 0.05 2.16 2.16 98 1017.1
20260510190003 19 82 1.6 6.4 0.20 2.16 2.16 98 1017.1
20260510185502 19 94 1.6 6.4 0.23 2.16 2.16 98 1017.2
20260510185002 18 103 1.6 9.7 0.25 2.16 2.16 98 1017.2
20260510184503 18 95 1.6 14.5 0.30 2.16 2.16 98 1017.0
20260510184002 17 90 1.6 14.5 0.36 2.16 2.16 97 1017.0
20260510183502 17 82 1.6 9.7 0.84 2.16 2.16 97 1017.0
20260510183002 17 79 1.6 9.7 1.24 2.16 2.16 97 1017.1
20260510182502 17 69 1.6 8.0 1.88 2.16 2.16 97 1017.1
20260510182002 17 71 3.2 14.5 2.03 2.16 2.16 97 1017.0
20260510181502 17 81 3.2 14.5 2.08 2.16 2.16 97 1016.6
20260510181002 17 84 3.2 9.7 2.01 2.08 2.08 97 1016.3
20260510180502 17 100 1.6 9.7 1.91 1.98 1.98 96 1016.6
20260510180002 17 102 1.6 8.0 1.88 1.96 1.96 96 1016.9
20260510175502 17 89 1.6 8.0 1.85 1.93 1.93 96 1016.9
20260510174503 17 69 3.2 12.9 1.78 1.85 1.85 94 1017.4
20260510174002 17 54 3.2 12.9 1.68 1.75 1.75 94 1017.2
20260510173503 18 46 4.8 12.9 1.12 1.19 1.19 93 1017.2
20260510173002 18 51 4.8 11.3 0.84 0.91 0.91 90 1017.4
20260510172502 19 48 4.8 9.7 0.20 0.28 0.28 87 1017.5
20260510172002 20 37 6.4 11.3 0.05 0.13 0.13 83 1017.4
20260510171502 21 32 6.4 17.7 0.00 0.08 0.08 78 1017.1
20260510171002 22 32 4.8 17.7 0.00 0.08 0.08 72 1016.8
20260510170502 25 39 3.2 11.3 0.00 0.08 0.08 67 1017.0
20260510170002 26 152 0.0 8.0 0.00 0.08 0.08 71 1016.7
20260510165502 27 168 1.6 8.0 0.00 0.08 0.08 70 1015.8
20260510165002 27 167 1.6 9.7 0.00 0.08 0.08 70 1015.5
20260510164002 27 173 4.8 14.5 0.00 0.08 0.08 69 1015.2
20260510163502 27 177 6.4 17.7 0.00 0.08 0.08 68 1015.0
20260510163003 27 183 8.0 19.3 0.00 0.08 0.08 68 1014.8
20260510162503 27 176 8.0 19.3 0.00 0.08 0.08 68 1014.8
20260510162002 27 177 6.4 16.1 0.00 0.08 0.08 68 1014.6
20260510161502 27 191 8.0 22.5 0.00 0.08 0.08 68 1014.5
20260510161002 27 191 8.0 22.5 0.00 0.08 0.08 68 1014.5
20260510160503 26 177 6.4 16.1 0.00 0.08 0.08 69 1014.2
20260510155502 26 184 8.0 19.3 0.00 0.08 0.08 68 1013.9
20260510155003 26 173 8.0 22.5 0.00 0.08 0.08 69 1013.9
20260510154502 26 176 6.4 22.5 0.00 0.08 0.08 69 1013.9
20260510154002 26 184 4.8 19.3 0.00 0.08 0.08 71 1014.0
20260510153003 25 179 6.4 19.3 0.00 0.08 0.08 72 1013.8
20260510152502 24 178 6.4 19.3 0.00 0.08 0.08 73 1013.8
20260510152003 24 173 6.4 22.5 0.00 0.08 0.08 74 1013.9
20260510151503 23 176 6.4 22.5 0.00 0.08 0.08 74 1013.8
20260510151003 23 177 6.4 14.5 0.00 0.08 0.08 74 1013.8
20260510150502 23 172 4.8 16.1 0.00 0.08 0.08 75 1013.7
20260510145002 22 173 4.8 16.1 0.00 0.08 0.08 81 1013.7
20260510144503 22 175 6.4 16.1 0.00 0.08 0.08 81 1013.8
20260510144003 21 170 6.4 16.1 0.00 0.08 0.08 82 1013.9
20260510143503 21 162 4.8 19.3 0.00 0.08 0.08 83 1013.9
20260510143003 21 167 4.8 19.3 0.00 0.08 0.08 84 1014.1
20260510142502 20 175 4.8 16.1 0.00 0.08 0.08 85 1014.3
20260510142003 20 174 4.8 12.9 0.00 0.08 0.08 86 1014.4
20260510141503 20 168 3.2 11.3 0.00 0.08 0.08 87 1014.6
20260510141002 20 171 3.2 11.3 0.00 0.08 0.08 87 1014.9
20260510140502 19 170 1.6 8.0 0.00 0.08 0.08 88 1015.1
20260510135503 19 178 1.6 8.0 0.00 0.08 0.08 88 1015.4
20260510135003 19 178 3.2 8.0 0.00 0.08 0.08 89 1015.5
20260510134503 18 171 1.6 8.0 0.00 0.08 0.08 89 1015.4
20260510134003 18 165 1.6 8.0 0.00 0.08 0.08 89 1015.3
20260510133502 18 162 1.6 8.0 0.00 0.08 0.08 90 1015.3
20260510133003 18 162 1.6 8.0 0.00 0.08 0.08 90 1015.2
20260510132503 18 164 1.6 4.8 0.00 0.08 0.08 91 1015.1
20260510132002 18 166 1.6 6.4 0.00 0.08 0.08 91 1014.9
20260510131503 18 155 1.6 6.4 0.00 0.08 0.08 92 1014.9
20260510131002 18 134 1.6 4.8 0.00 0.08 0.08 92 1014.8
20260510130003 18 128 1.6 6.4 0.00 0.08 0.08 92 1014.8
20260510125502 18 141 1.6 4.8 0.00 0.08 0.08 93 1014.6
20260510125003 18 157 1.6 8.0 0.00 0.08 0.08 93 1014.6
20260510124503 18 162 1.6 8.0 0.00 0.08 0.08 93 1014.7
20260510123503 18 143 0.0 4.8 0.00 0.08 0.08 94 1014.6
20260510123003 18 130 0.0 3.2 0.00 0.08 0.08 94 1014.6
20260510122502 18 0 0.0 0.0 0.00 0.08 0.08 94 1014.6
20260510122003 17 153 0.0 4.8 0.00 0.08 0.08 94 1014.6
20260510121002 17 70 0.0 4.8 0.00 0.08 0.08 94 1014.5
20260510120503 17 90 1.6 6.4 0.00 0.08 0.08 94 1014.4
20260510120003 17 106 0.0 6.4 0.00 0.08 0.08 94 1014.2
20260510115003 17 117 0.0 3.2 0.00 0.08 0.08 94 1014.1
20260510114503 17 122 0.0 3.2 0.00 0.08 0.08 94 1014.2
20260510114002 17 136 0.0 4.8 0.00 0.08 0.08 94 1014.2
20260510113503 17 140 0.0 4.8 0.00 0.08 0.08 94 1014.1
20260510113003 17 141 0.0 4.8 0.00 0.08 0.08 94 1014.2
20260510112002 17 126 0.0 1.6 0.00 0.08 0.08 94 1014.2
20260510111503 18 141 0.0 4.8 0.00 0.08 0.08 94 1014.2
20260510111003 18 146 0.0 4.8 0.00 0.08 0.08 94 1013.9
20260510110503 18 0 0.0 0.0 0.00 0.08 0.08 93 1014.0
20260510105503 18 171 0.0 1.6 0.08 0.08 0.08 93 1013.9
20260510105003 18 144 0.0 4.8 0.08 0.08 0.08 93 1013.8
20260510104503 18 135 1.6 4.8 0.08 0.08 0.08 93 1013.5
20260510104003 18 139 1.6 9.7 0.08 0.08 0.08 93 1013.4
20260510103503 18 149 1.6 9.7 0.08 0.08 0.08 93 1013.5
20260510102503 18 90 3.2 14.5 0.08 0.08 0.08 92 1013.7
20260510102002 18 84 3.2 14.5 0.08 0.08 0.08 91 1013.7
20260510101503 18 85 3.2 12.9 0.08 0.08 0.08 91 1013.3
20260510101003 18 94 3.2 12.9 0.08 0.08 0.08 90 1013.2
20260510100503 19 87 4.8 11.3 0.05 0.05 0.05 89 1013.5
20260510100003 20 71 4.8 12.9 0.05 0.05 0.05 86 1013.7
20260510095003 21 46 3.2 8.0 0.00 0.00 0.00 80 1015.2
20260510094003 22 49 3.2 19.3 0.00 0.00 0.00 79 1014.6
20260510093503 22 58 4.8 20.9 0.00 0.00 0.00 80 1014.3
20260510093003 22 59 3.2 20.9 0.00 0.00 0.00 82 1013.7
20260510092503 23 68 1.6 9.7 0.00 0.00 0.00 90 1013.7
20260510092003 23 83 1.6 6.4 0.00 0.00 0.00 92 1013.5
20260510091503 23 95 0.0 6.4 0.00 0.00 0.00 92 1013.4
20260510090503 23 101 0.0 1.6 0.00 0.00 0.00 92 1013.2
20260510090003 23 102 0.0 3.2 0.00 0.00 0.00 92 1012.8
20260510084003 23 135 0.0 3.2 0.00 0.00 0.00 92 1012.1
20260510083503 23 0 0.0 0.0 0.00 0.00 0.00 92 1012.1
20260510083003 22 0 0.0 0.0 0.00 0.00 0.00 92 1012.2
20260510082003 22 0 0.0 0.0 0.00 0.00 0.00 91 1011.8
20260510081003 22 128 0.0 1.6 0.00 0.00 0.00 91 1011.2
20260510080503 22 128 0.0 1.6 0.00 0.00 0.00 90 1011.1
20260510075503 22 127 0.0 1.6 0.00 0.00 0.00 90 1010.9
20260510075003 23 126 0.0 1.6 0.00 0.00 0.00 90 1011.0
20260510074503 23 147 0.0 3.2 0.00 0.00 0.00 90 1010.7
20260510073003 23 147 0.0 1.6 0.00 0.00 0.00 89 1010.5
20260510072503 23 0 0.0 0.0 0.00 0.00 0.00 88 1010.8
20260510072003 23 0 0.0 0.0 0.00 0.00 0.00 87 1010.9
20260510071504 23 0 0.0 0.0 0.00 0.00 0.00 87 1011.2
20260510071003 23 0 0.0 0.0 0.00 0.00 0.00 87 1011.3
20260510070503 23 0 0.0 0.0 0.00 0.00 0.00 87 1011.5
20260510070003 23 0 0.0 0.0 0.00 0.00 0.00 87 1011.7
20260510065503 23 0 0.0 0.0 0.00 0.00 0.00 87 1011.6
20260510065004 23 0 0.0 0.0 0.00 0.00 0.00 87 1011.6
20260510064504 23 0 0.0 0.0 0.00 0.00 0.00 86 1011.6
20260510064003 23 0 0.0 0.0 0.00 0.00 0.00 86 1011.6
20260510063503 23 0 0.0 0.0 0.00 0.00 0.00 86 1011.7
20260510063003 23 0 0.0 0.0 0.00 0.00 0.00 86 1011.6
20260510062504 23 156 0.0 1.6 0.00 0.00 0.00 85 1011.1
20260510062004 23 169 1.6 3.2 0.00 0.00 0.00 85 1010.7
20260510061503 23 160 1.6 6.4 0.00 0.00 0.00 85 1010.3
20260510061003 23 159 3.2 9.7 0.00 0.00 0.00 85 1010.0
20260510060003 23 161 1.6 9.7 0.00 0.00 0.00 86 1009.8
20260510055504 23 155 1.6 6.4 0.00 0.00 0.00 86 1009.8
20260510055004 23 156 1.6 6.4 0.00 0.00 0.00 86 1009.7
20260510054003 23 156 1.6 8.0 0.00 0.00 0.00 87 1009.6
20260510053503 23 146 1.6 8.0 0.00 0.00 0.00 87 1009.6
20260510053003 23 138 1.6 8.0 0.00 0.00 0.00 87 1009.6
20260510052503 23 133 1.6 6.4 0.00 0.00 0.00 87 1009.7
20260510052003 23 135 1.6 8.0 0.00 0.00 0.00 87 1009.8
20260510051004 23 136 1.6 4.8 0.00 0.00 0.00 87 1009.5
20260510050503 23 149 1.6 4.8 0.00 0.00 0.00 87 1009.4
20260510050004 23 145 1.6 6.4 0.00 0.00 0.00 87 1009.3
20260510045504 23 144 1.6 8.0 0.00 0.00 0.00 86 1009.2
20260510045003 23 143 1.6 8.0 0.00 0.00 0.00 86 1009.2
20260510044001 23 131 1.6 6.4 0.00 0.00 0.00 86 1009.1
20260510043501 23 116 0.0 6.4 0.00 0.00 0.00 85 1009.2
20260510043001 23 114 0.0 4.8 0.00 0.00 0.00 85 1009.2
20260510042001 23 130 0.0 1.6 0.00 0.00 0.00 83 1009.4
20260510041501 23 147 0.0 1.6 0.00 0.00 0.00 82 1009.5
20260510041001 23 148 0.0 1.6 0.00 0.00 0.00 82 1009.5
20260510035501 23 161 0.0 3.2 0.00 0.00 0.00 81 1009.3
20260510035001 23 147 0.0 3.2 0.00 0.00 0.00 81 1009.4
20260510034501 23 135 0.0 3.2 0.00 0.00 0.00 81 1009.3
20260510033502 23 184 0.0 3.2 0.00 0.00 0.00 81 1009.4
20260510032501 23 137 0.0 1.6 0.00 0.00 0.00 81 1009.5
20260510032002 23 115 0.0 1.6 0.00 0.00 0.00 81 1009.4
20260510031501 23 115 0.0 1.6 0.00 0.00 0.00 80 1009.4
20260510031001 23 107 0.0 1.6 0.00 0.00 0.00 80 1009.4
20260510030501 23 106 0.0 1.6 0.00 0.00 0.00 80 1009.4
20260510030002 23 107 0.0 4.8 0.00 0.00 0.00 79 1009.4
20260510025501 23 109 0.0 4.8 0.00 0.00 0.00 80 1009.4
20260510025002 23 118 0.0 1.6 0.00 0.00 0.00 79 1009.4
20260510024501 23 117 0.0 1.6 0.00 0.00 0.00 79 1009.3
20260510024002 23 0 0.0 0.0 0.00 0.00 0.00 79 1009.2
20260510023502 24 0 0.0 0.0 0.00 0.00 0.00 78 1009.2
20260510022501 24 94 0.0 1.6 0.00 0.00 0.00 78 1009.1
20260510022002 24 94 0.0 1.6 0.00 0.00 0.00 78 1009.1
20260510021001 25 62 0.0 1.6 0.00 0.00 0.00 77 1008.9
20260510020502 25 0 0.0 0.0 0.00 0.00 0.00 76 1008.9
20260510020001 25 0 0.0 0.0 0.00 0.00 0.00 76 1008.9
20260510015502 25 62 0.0 1.6 0.00 0.00 0.00 75 1008.8
20260510014001 26 0 0.0 0.0 0.00 0.00 0.00 73 1008.7
20260510013502 26 108 0.0 1.6 0.00 0.00 0.00 73 1008.6
20260510013002 26 86 0.0 3.2 0.00 0.00 0.00 72 1008.4
20260510012501 26 102 0.0 3.2 0.00 0.00 0.00 71 1008.5
20260510012001 26 99 0.0 4.8 0.00 0.00 0.00 70 1008.5
20260510011501 27 81 0.0 4.8 0.00 0.00 0.00 68 1008.5
20260510011002 27 137 0.0 1.6 0.00 0.00 0.00 66 1008.3
20260510010501 27 137 0.0 1.6 0.00 0.00 0.00 65 1008.3
20260510010001 28 139 0.0 1.6 0.00 0.00 0.00 61 1008.3
20260510005502 29 0 0.0 0.0 0.00 0.00 0.00 59 1008.2
20260510005001 30 0 0.0 0.0 0.00 0.00 0.00 57 1008.3
20260510003502 32 139 0.0 1.6 0.00 0.00 0.00 53 1008.2
20260510003003 32 0 0.0 0.0 0.00 0.00 0.00 52 1008.3
20260510002502 32 0 0.0 0.0 0.00 0.00 0.00 51 1008.3
20260510002002 33 0 0.0 0.0 0.00 0.00 0.00 51 1008.2
20260510001001 33 139 0.0 1.6 0.00 0.00 0.00 50 1008.3
20260510000502 32 139 0.0 1.6 0.00 0.00 0.00 51 1008.3
20260510000001 32 139 0.0 1.6 0.00 0.00 0.00 50 1008.2
20260509235502 32 139 0.0 1.6 0.00 0.00 0.00 51 1008.1
20260509235002 32 139 0.0 1.6 0.00 0.00 0.00 51 1008.1
20260509234501 32 139 0.0 1.6 0.00 0.00 0.00 52 1008.1
20260509234002 32 139 0.0 1.6 0.00 0.00 0.00 51 1008.1
20260509233502 32 132 0.0 1.6 0.00 0.00 0.00 52 1008.1
20260509232502 32 128 0.0 3.2 0.00 0.00 0.00 51 1008.1
20260509232001 32 130 0.0 4.8 0.00 0.00 0.00 51 1008.1
20260509231502 32 115 0.0 4.8 0.00 0.00 0.00 50 1008.1
20260509231001 32 92 0.0 1.6 0.00 0.00 0.00 51 1008.2
20260509230502 32 125 0.0 1.6 0.00 0.00 0.00 51 1008.2
20260509230003 32 124 0.0 3.2 0.00 0.00 0.00 50 1008.1
20260509225502 32 124 0.0 3.2 0.00 0.00 0.00 51 1008.2
20260509225002 32 160 0.0 1.6 0.00 0.00 0.00 51 1008.2
20260509224502 33 121 0.0 1.6 0.00 0.00 0.00 49 1008.1
20260509224002 33 90 0.0 1.6 0.00 0.00 0.00 51 1008.1
20260509223001 32 96 0.0 1.6 0.00 0.00 0.00 52 1008.0
20260509222502 32 99 0.0 1.6 0.00 0.00 0.00 50 1008.0
20260509222001 32 91 0.0 3.2 0.00 0.00 0.00 51 1008.1